COSMOS 2483

导读

COSMOS 2483是俄罗斯(CIS,独联体)于2013年1月15日发射的人造卫星,隶属于俄罗斯/苏联历史悠久的“宇宙号”(COSMOS/Kosmos)卫星系列。该系列是全球规模最大的卫星家族,多数承担军用任务,COSMOS 2483延续系列定位,服役期间为空间任务提供支持,是该庞大卫星序列中的常规任务航天器。

基本信息
目录编号:
39058
目录名称:
COSMOS 2483
国际标识:
2013-001B
轨道中心:
EARTH
卫星名称:
COSMOS 2483
卫星全名:
--
卫星状态:
在轨 (已飞行4990 天)
发射日期:
2013-01-15 UTC
国别 :
俄罗斯(独联体) (CIS)
星等 :
--
该卫星已列入 空间交会检测服务 Space Conjunction Data Service (SCDS) ,当前飞行风险评估等级: 无高风险
轨道信息
数据来源 国际轨道数据 AOE轨道数据
星历时间 2026-09-14T07:37:00+0800
7小时前
查看轨道信息
2026-09-12T23:00:00+0800
1天前
查看轨道信息
半长轴 7867.719km 7867.719km
偏心率 0.0015977 0.001594
轨道倾角 82.504° 82.505°
近地点辐角 174.710° 178.075°
升交点赤经 159.590° 160.436°
平近点角 185.416° 218.609°
近地点 1477.011km 1477.04km
远地点 1502.153km 1502.124km
周期 115.753分钟 115.753分钟
每日圈数 12.440263 12.440263
详细信息
使用方式:
暂无
2D轨道图
3D轨道图
轨道高度分析图
轨道倾角分析图
轨道综合分析图
查看轨道综合分析图
交会数据列表
事件ID 空间交会对象 最接近时刻(TCA) 交会距离 交会风险概率(CRP) 交会风险指数(CRI) 操作
CDM_260914-191901-076703-905826
2026-09-14T
19:19:52+0000
2.504 km
极远距离
1.368997E-6 低风险 0.38
与全量物体交会距离演化趋势 订阅飞行安全评估服务
与全量物体交会风险概率演化趋势 订阅飞行安全评估服务